Probability
0 0 0 0 0 0 0 0 0 0 0 0 0 0 0 0 0 0 0 0 0 0 3 3 3 3 6 10 6 0 0 0 0 0 0 0 0 3 0 0 0 0 0
0 0 0 0 0 0 0 0 0 0 0 0 0 0 0 0 0 0 0 0 0 0 0 3 3 3 6 6 10 6 0 0 0 0 0 0 0 0 3 0 0 3 0
0 0 0 0 0 0 0 0 0 0 0 0 0 0 0 0 0 0 0 0 0 0 0 0 3 3 3 6 6 6 3 0 0 0 0 0 0 0 3 3 0 3 0
0 0 0 0 0 0 0 0 0 0 0 0 0 0 0 0 0 0 0 0 0 0 0 0 0 3 3 3 3 6 3 3 3 0 0 0 0 0 0 3 3 0 0
0 0 0 0 0 0 0 0 0 0 0 0 0 0 0 0 0 0 0 0 0 0 0 0 0 0 3 6 3 3 0 0 3 0 0 0 0 0 0 0 3 0 0
0 0 0 0 0 0 0 0 0 0 0 0 0 0 0 0 0 0 0 0 0 0 0 0 0 0 0 3 3 3 0 0 0 0 0 0 0 0 0 0 0 0 0
0 0 0 0 0 0 0 0 0 0 0 0 0 0 0 0 0 0 0 0 0 0 0 0 0 0 0 0 0 0 0 0 0 0 0 0 0 0 0 0 0 3 0
0 0 0 0 0 0 0 0 0 0 0 0 0 0 0 0 0 0 0 0 0 0 0 0 0 0 0 0 0 0 0 0 0 0 0 0 0 0 0 0 0 3 0
0 0 0 0 0 0 0 0 0 0 0 0 0 0 0 0 0 0 0 0 0 0 0 0 0 0 0 0 0 0 0 0 0 0 0 0 0 0 0 0 0 0 0
0 0 0 0 0 0 0 0 0 0 0 0 0 0 0 0 0 0 0 0 0 0 0 0 0 0 0 0 0 0 0 0 0 0 0 0 0 0 0 0 0 0 0
0 0 0 0 0 0 0 0 0 0 0 0 0 0 0 0 0 0 0 0 0 0 0 0 0 0 0 0 0 0 0 0 0 0 0 0 0 0 0 0 0 0 0
0 0 0 0 0 0 0 0 0 0 0 0 0 0 0 0 0 0 0 0 0 0 0 0 0 0 0 0 0 0 0 0 0 0 0 0 0 0 0 0 0 0 0
0 0 0 0 0 0 0 0 0 0 0 0 0 0 0 0 0 0 0 0 0 0 0 0 0 0 0 0 0 0 0 0 0 0 0 0 0 0 0 0 0 0 0
0 0 0 0 0 0 0 0 0 0 0 0 0 0 0 0 0 0 0 0 0 0 0 0 0 0 0 0 0 0 0 0 0 0 0 0 0 0 0 0 0 0 0
0 0 0 0 0 0 0 0 0 0 0 0 0 0 0 0 0 0 0 0 0 0 0 0 0 0 0 0 0 0 0 0 0 0 0 0 0 0 0 0 0 0 0
0 0 0 0 0 0 0 0 0 0 0 0 0 0 0 0 0 0 0 0 0 0 0 0 0 0 0 0 0 0 0 0 0 0 0 0 0 0 0 0 0 0 0
0 0 0 0 0 0 0 0 0 0 0 0 0 0 0 0 0 0 0 0 0 0 0 0 0 0 0 0 0 0 0 0 0 0 0 0 0 0 0 0 0 0 0
0 0 0 0 0 0 0 0 0 0 0 0 0 0 0 0 0 0 0 0 0 0 0 0 0 0 0 0 0 0 0 0 0 0 0 0 0 0 0 0 0 0 0
0 0 0 0 0 0 0 0 0 0 0 0 0 0 0 0 0 0 0 0 0 0 0 0 0 0 0 0 0 0 0 0 0 0 0 0 0 0 0 0 0 0 0
0 0 0 0 0 0 0 0 0 0 0 0 0 0 0 0 0 0 0 0 0 0 0 0 0 0 0 0 0 0 0 0 0 0 0 0 0 0 0 0 0 0 0
0 0 0 0 0 0 0 0 0 0 0 0 0 0 0 0 0 0 0 0 0 0 0 0 0 0 0 0 0 0 0 0 0 0 0 0 0 0 0 0 0 0 0
0 0 0 0 0 0 0 0 0 0 0 0 0 0 0 0 0 0 0 0 0 0 0 0 0 0 0 0 0 0 0 0 0 0 0 0 0 0 0 0 0 0 0
0 0 0 0 0 0 0 0 0 0 0 0 0 0 0 0 0 0 0 0 0 0 0 0 0 0 0 0 0 0 0 0 0 0 0 0 0 0 0 0 0 0 0
0 0 0 0 0 0 0 0 0 0 0 0 0 0 0 0 0 0 0 0 0 0 0 0 0 0 0 0 0 0 0 0 0 0 0 0 0 0 0 0 0 0 0
0 0 0 0 0 0 0 0 0 0 0 0 0 0 0 0 0 0 0 0 0 0 0 0 0 0 0 0 0 0 0 0 0 0 0 0 0 0 0 0 0 0 0
0 0 0 0 0 0 0 0 0 0 0 0 0 0 0 0 0 0 0 0 0 0 0 0 0 0 0 0 0 0 0 0 0 0 0 0 0 0 0 0 0 0 0
Height
5783 5784 5786 5787 5789 5790 5792 5793 5794 5795 5796 5798 5799 5800 5802 5803 5804 5806 5808 5809 5810 5812 5813 5814 5815 5816 5817 5819 5820 5820 5821 5822 5823 5823 5824 5824 5825 5825 5825 5825 5825 5825 5825
5774 5775 5777 5779 5780 5782 5783 5784 5786 5787 5788 5790 5791 5792 5793 5795 5796 5798 5800 5801 5803 5804 5805 5807 5808 5809 5811 5812 5813 5814 5815 5816 5817 5818 5819 5819 5820 5820 5820 5820 5821 5821 5821
5764 5766 5768 5769 5771 5772 5774 5775 5777 5778 5779 5781 5782 5783 5785 5786 5787 5789 5791 5793 5794 5796 5797 5798 5800 5801 5803 5805 5806 5807 5809 5810 5811 5812 5813 5813 5814 5814 5815 5815 5815 5815 5816
5754 5755 5758 5759 5761 5762 5764 5765 5767 5768 5769 5771 5773 5774 5775 5777 5778 5780 5781 5783 5785 5787 5788 5790 5791 5793 5795 5797 5798 5800 5801 5803 5804 5805 5806 5807 5808 5808 5809 5809 5810 5810 5810
5743 5745 5747 5749 5750 5752 5753 5755 5756 5758 5759 5760 5762 5764 5765 5766 5768 5769 5771 5773 5774 5776 5778 5780 5782 5784 5786 5788 5789 5791 5793 5794 5796 5797 5798 5799 5800 5801 5802 5803 5803 5804 5804
5732 5734 5736 5737 5739 5741 5742 5744 5745 5747 5748 5749 5751 5753 5754 5755 5757 5758 5760 5761 5763 5765 5767 5769 5771 5774 5776 5778 5780 5782 5784 5786 5787 5789 5790 5792 5793 5794 5795 5795 5796 5797 5798
5720 5722 5723 5725 5727 5729 5730 5731 5733 5734 5736 5737 5739 5741 5742 5743 5745 5746 5747 5749 5751 5753 5755 5758 5760 5763 5765 5767 5770 5772 5774 5776 5778 5779 5781 5783 5785 5786 5787 5788 5789 5789 5790
5707 5709 5711 5713 5714 5716 5717 5719 5720 5721 5722 5723 5725 5727 5729 5732 5732 5734 5735 5736 5739 5741 5743 5745 5748 5751 5753 5756 5758 5761 5763 5766 5767 5769 5771 5773 5775 5777 5778 5779 5780 5781 5782
5693 5695 5698 5699 5701 5703 5704 5705 5707 5708 5709 5709 5710 5712 5714 5717 5719 5721 5721 5723 5725 5727 5729 5732 5734 5737 5740 5743 5746 5749 5751 5754 5756 5758 5760 5763 5765 5767 5768 5770 5772 5773 5774
5679 5682 5684 5686 5687 5689 5690 5691 5693 5694 5695 5696 5696 5697 5699 5701 5703 5706 5708 5709 5710 5713 5715 5718 5720 5723 5726 5729 5733 5736 5738 5741 5744 5746 5749 5751 5753 5755 5757 5759 5761 5763 5764
5665 5667 5669 5671 5673 5675 5676 5678 5679 5680 5680 5681 5682 5683 5684 5685 5687 5690 5693 5695 5696 5697 5700 5703 5705 5708 5711 5715 5718 5721 5724 5727 5730 5733 5736 5738 5741 5743 5746 5748 5750 5752 5753
5651 5652 5655 5656 5658 5660 5662 5663 5664 5665 5666 5667 5668 5668 5669 5671 5673 5674 5677 5679 5681 5682 5684 5687 5690 5692 5696 5699 5703 5706 5710 5713 5717 5720 5723 5725 5728 5731 5733 5736 5738 5740 5742
5636 5638 5640 5642 5643 5645 5647 5648 5649 5650 5651 5652 5653 5654 5655 5656 5657 5659 5661 5663 5665 5668 5669 5672 5674 5677 5680 5684 5688 5692 5696 5699 5703 5706 5709 5712 5715 5718 5720 5723 5725 5727 5730
5622 5623 5625 5627 5628 5630 5631 5633 5634 5635 5636 5637 5638 5639 5640 5641 5642 5643 5645 5647 5650 5653 5655 5658 5659 5662 5665 5669 5673 5677 5681 5685 5688 5692 5695 5699 5702 5704 5707 5709 5712 5714 5717
5607 5608 5610 5611 5613 5615 5616 5618 5619 5620 5621 5622 5623 5624 5625 5626 5627 5628 5629 5631 5634 5637 5641 5643 5645 5648 5651 5655 5658 5662 5666 5670 5673 5677 5681 5684 5687 5690 5693 5696 5698 5701 5703
5592 5593 5595 5596 5598 5599 5601 5603 5604 5605 5606 5607 5608 5609 5610 5611 5612 5613 5614 5616 5618 5621 5624 5629 5631 5634 5636 5640 5644 5647 5651 5655 5658 5662 5665 5669 5672 5675 5678 5681 5684 5686 5689
5577 5579 5580 5581 5583 5584 5585 5587 5588 5590 5591 5592 5592 5593 5594 5595 5597 5598 5599 5601 5603 5605 5608 5613 5616 5619 5622 5625 5628 5632 5635 5639 5643 5646 5649 5653 5656 5660 5663 5666 5669 5671 5674
5563 5564 5565 5566 5568 5569 5570 5571 5573 5574 5575 5576 5577 5578 5579 5580 5581 5582 5584 5585 5587 5590 5593 5597 5600 5603 5606 5609 5613 5617 5620 5623 5627 5631 5633 5637 5640 5644 5647 5651 5653 5656 5658
5548 5549 5550 5551 5553 5554 5555 5556 5557 5558 5559 5560 5561 5562 5563 5564 5566 5567 5568 5570 5572 5574 5577 5580 5584 5587 5590 5593 5597 5600 5604 5608 5611 5614 5617 5620 5624 5628 5631 5634 5637 5640 5643
5533 5534 5535 5537 5538 5539 5540 5540 5541 5543 5544 5544 5545 5546 5547 5548 5550 5552 5553 5555 5557 5559 5561 5565 5568 5571 5574 5577 5580 5584 5588 5591 5595 5598 5601 5604 5608 5611 5615 5618 5622 5625 5627
5519 5520 5520 5522 5523 5524 5525 5525 5526 5527 5528 5529 5529 5530 5531 5533 5534 5536 5538 5540 5542 5544 5547 5549 5553 5555 5559 5561 5564 5567 5571 5574 5578 5581 5585 5588 5592 5595 5597 5601 5604 5607 5610
5504 5504 5505 5506 5507 5508 5510 5510 5511 5512 5513 5514 5515 5515 5516 5518 5519 5521 5523 5525 5527 5530 5532 5534 5537 5540 5543 5545 5548 5550 5554 5558 5563 5567 5568 5571 5574 5577 5580 5584 5588 5591 5593
5489 5489 5490 5491 5492 5493 5494 5495 5496 5497 5498 5499 5500 5501 5502 5503 5505 5507 5509 5511 5513 5515 5517 5520 5522 5525 5528 5530 5533 5536 5537 5540 5545 5548 5550 5555 5557 5560 5563 5566 5570 5574 5577
5474 5475 5476 5477 5478 5479 5480 5481 5481 5482 5484 5485 5486 5487 5488 5490 5491 5493 5496 5498 5500 5502 5504 5506 5509 5511 5513 5514 5516 5519 5521 5524 5527 5530 5533 5538 5540 5543 5546 5549 5553 5557 5560
5460 5460 5461 5463 5464 5465 5465 5466 5466 5468 5469 5471 5472 5473 5474 5476 5478 5479 5482 5485 5487 5488 5490 5492 5494 5496 5497 5499 5501 5503 5505 5508 5511 5515 5517 5520 5524 5526 5529 5532 5536 5540 5543
5445 5446 5447 5448 5450 5451 5451 5452 5452 5454 5456 5457 5458 5459 5461 5463 5464 5465 5468 5470 5473 5475 5476 5478 5479 5481 5483 5484 5486 5488 5490 5492 5495 5498 5501 5504 5507 5509 5513 5516 5519 5522 5526
Wind_Speed
36 36 36 36 35 35 35 36 35 35 33 33 32 32 32 33 33 32 31 31 31 30 30 30 30 30 29 28 27 27 26 25 23 23 22 21 21 20 20 19 19 18 17
38 38 38 38 38 37 37 37 37 36 36 35 35 35 34 35 35 34 34 33 33 33 33 33 32 32 32 31 30 29 28 27 26 24 24 23 23 22 22 21 21 20 20
40 40 40 39 39 39 39 38 38 38 38 38 37 37 37 37 37 36 36 36 36 36 36 35 35 35 34 33 32 31 31 30 28 27 26 26 25 25 24 23 23 22 22
42 42 41 40 40 41 40 40 39 39 40 40 40 40 40 39 39 39 39 39 39 39 39 38 38 37 36 36 35 34 33 32 30 29 29 28 27 27 26 25 25 24 23
42 42 42 42 42 42 42 41 41 41 41 41 42 42 42 42 42 42 43 42 42 42 42 41 41 40 39 38 37 37 36 35 33 32 31 31 30 29 28 27 27 26 25
44 44 44 43 43 43 43 43 43 43 43 43 44 44 44 44 45 44 45 45 45 45 44 43 43 43 42 41 40 39 38 37 36 35 33 32 31 31 30 29 28 28 27
46 46 45 45 45 44 45 44 45 44 45 45 45 46 46 47 46 46 47 46 46 46 46 45 45 45 45 44 43 42 41 40 39 38 37 35 34 34 33 31 30 30 29
48 48 48 47 47 46 46 47 47 46 47 47 47 47 47 48 48 48 49 49 48 48 48 48 47 47 47 46 46 45 44 42 42 41 40 38 36 36 35 34 33 32 32
49 49 49 49 48 48 48 48 48 49 49 48 49 49 49 49 49 49 50 51 50 50 50 50 50 49 49 48 47 47 46 45 44 43 42 41 39 39 38 37 36 35 35
52 51 51 50 49 50 50 49 49 50 50 50 50 50 50 50 50 50 51 51 52 52 53 53 52 52 50 50 49 49 48 48 47 46 45 44 43 42 41 40 39 38 37
52 52 52 51 51 51 51 51 50 50 51 51 51 51 51 51 51 51 51 51 53 54 54 54 54 54 53 51 51 51 50 49 49 48 47 46 45 44 44 43 42 41 40
53 53 53 52 53 53 53 52 52 52 52 51 52 52 52 52 52 52 51 51 52 53 55 56 56 55 54 53 52 52 52 50 50 49 49 47 47 46 46 45 44 43 42
54 54 54 53 53 53 53 52 51 52 52 52 51 52 52 52 53 53 53 52 51 52 53 54 54 55 55 54 53 53 53 51 51 50 50 50 49 48 47 47 47 46 45
53 54 55 54 55 54 54 53 53 53 53 53 52 53 53 53 53 53 53 52 51 51 51 52 53 54 55 54 54 54 54 53 52 51 51 50 50 49 49 49 48 48 47
53 54 55 56 56 56 55 54 54 53 53 53 53 53 53 53 54 54 53 53 53 52 51 52 54 54 55 54 54 54 54 54 54 53 52 51 51 50 50 50 50 49 49
53 54 54 55 56 55 55 55 54 53 53 54 54 53 53 53 54 54 54 54 55 54 53 53 55 54 55 56 55 55 55 55 55 55 54 54 53 52 52 52 51 51 51
53 54 54 55 55 55 54 55 54 54 54 54 54 54 54 54 54 54 54 55 55 56 54 53 54 55 56 57 57 56 56 56 56 56 56 56 55 55 53 53 53 52 53
52 53 53 53 54 54 54 54 55 55 55 55 55 55 55 55 55 54 54 55 55 55 54 54 55 56 56 56 57 57 57 57 56 57 58 58 57 56 55 55 55 54 54
52 52 52 52 53 53 53 53 54 55 55 55 55 56 56 56 55 55 54 54 54 54 54 54 54 56 56 57 58 57 57 57 57 58 58 59 59 58 58 57 56 55 55
51 51 52 52 52 53 53 53 53 54 54 54 55 55 56 56 55 54 54 54 54 55 55 54 54 55 56 57 58 58 57 58 58 58 59 59 60 60 60 59 58 57 56
51 51 52 52 52 53 53 52 52 52 52 53 54 54 54 54 54 52 52 52 53 54 55 55 55 55 55 56 57 58 58 57 58 59 60 60 61 61 61 61 59 58 58
51 51 51 51 51 51 52 52 51 50 50 51 51 52 52 52 52 52 51 51 52 53 53 54 54 54 54 55 56 58 58 57 58 58 59 59 60 60 60 61 59 58 58
50 50 50 50 50 50 50 51 51 49 49 49 49 50 51 51 51 52 51 50 50 50 50 51 52 53 53 53 55 57 58 58 58 59 59 58 59 60 61 60 59 57 57
48 48 49 49 48 48 49 50 50 49 48 47 48 49 49 50 51 51 51 50 50 49 49 50 50 51 51 52 52 54 56 57 57 58 60 60 59 61 62 62 61 58 57
47 47 47 47 47 47 47 48 48 48 48 48 48 48 47 48 48 49 50 50 49 49 49 50 50 50 51 51 52 53 55 57 57 58 59 58 59 60 61 61 61 60 58
46 46 46 47 46 46 46 47 48 48 48 47 46 46 47 48 48 48 49 49 49 48 49 50 50 50 51 52 52 53 54 55 56 56 57 58 58 59 59 60 60 60 59
Wind_Direction
249 250 252 253 253 254 256 257 258 257 257 257 256 255 255 253 253 253 253 253 253 254 254 253 252 253 253 253 254 254 255 256 257 258 259 260 261 263 264 264 267 269 270
250 250 252 253 253 254 255 257 258 259 258 257 257 256 256 254 254 253 254 254 254 254 254 254 253 253 253 253 254 254 254 255 256 257 257 259 260 263 264 264 265 267 269
251 251 252 253 254 256 257 257 258 258 258 257 257 256 256 256 255 255 255 255 255 255 254 254 252 252 252 253 253 253 254 255 255 256 257 259 261 262 263 264 265 266 267
252 252 252 253 255 256 256 257 258 258 257 256 256 256 256 256 256 256 257 256 256 256 256 255 253 252 252 252 252 253 253 254 256 257 258 259 261 261 261 263 264 265 267
252 253 253 254 255 256 256 256 256 257 257 257 256 257 257 258 258 257 257 257 256 256 256 255 254 253 252 252 252 252 253 253 254 256 257 257 259 260 260 261 262 264 265
253 253 253 255 255 255 256 256 256 257 258 258 258 258 258 259 259 258 258 257 256 256 255 254 254 253 253 252 253 253 253 253 254 254 256 257 258 259 259 260 261 262 264
253 253 254 255 256 256 256 257 257 258 259 260 260 259 258 258 259 258 258 257 256 256 255 254 253 252 253 252 252 253 253 253 254 255 255 256 257 258 259 259 260 261 262
253 254 254 256 256 257 258 258 259 259 260 260 261 260 259 259 258 258 258 258 257 256 255 254 254 253 253 252 252 253 252 253 254 254 255 256 256 257 258 259 259 259 261
253 254 255 257 257 258 259 259 259 260 260 261 262 262 260 259 259 258 258 258 257 256 255 254 254 252 252 253 252 252 252 253 253 253 254 255 255 256 257 258 259 260 260
254 254 256 257 258 259 259 259 260 261 261 261 262 262 261 260 260 258 257 258 257 256 255 255 254 252 252 252 253 252 252 253 252 252 253 253 254 255 257 258 259 260 260
255 254 255 256 257 258 259 260 262 262 262 262 261 261 260 261 261 260 259 258 257 256 255 254 254 253 251 252 252 252 251 251 251 252 253 253 253 254 255 257 258 259 260
257 256 255 256 257 258 259 260 261 262 262 262 262 261 260 260 261 261 261 260 257 255 254 254 254 252 250 250 250 251 251 251 251 251 253 253 253 255 255 256 257 258 258
258 257 256 256 257 258 259 259 260 262 262 263 262 262 261 261 261 261 261 260 259 255 253 253 252 250 249 249 249 250 250 250 250 251 252 252 253 255 255 256 256 258 259
259 258 257 256 257 258 259 259 260 261 262 262 263 263 262 261 261 261 260 260 259 256 253 251 250 249 249 248 249 249 249 249 249 250 251 252 253 254 254 255 255 257 259
259 258 257 257 257 258 259 260 260 261 262 263 263 263 262 262 261 261 260 260 259 257 254 251 250 248 248 248 249 248 249 249 249 250 251 252 253 254 255 255 256 256 258
260 259 258 258 257 258 259 260 261 261 262 263 263 262 263 262 261 260 260 261 259 258 256 252 250 249 248 248 249 249 249 250 250 250 250 251 253 254 255 256 256 257 258
260 260 259 259 258 259 260 261 261 262 262 262 263 263 262 261 261 260 260 260 259 258 256 253 251 250 249 249 249 250 251 251 250 250 251 251 253 254 255 256 257 258 259
261 261 261 261 260 260 260 261 261 262 262 262 262 262 262 261 261 260 260 259 258 258 256 254 252 251 250 250 250 250 251 251 250 250 251 251 252 253 255 256 257 258 258
261 261 262 262 261 261 262 262 262 263 262 262 262 261 261 261 260 260 259 258 257 256 256 255 254 253 252 252 251 250 251 252 251 251 252 252 253 254 255 256 257 258 259
262 262 262 262 262 263 263 263 263 263 263 263 262 261 260 260 259 259 257 257 256 256 255 255 255 254 253 253 251 251 251 252 251 252 252 252 253 254 254 255 256 257 258
263 262 262 262 263 263 264 263 264 264 263 263 262 261 260 259 258 256 256 257 257 256 256 255 255 255 254 254 253 252 252 252 252 252 252 252 253 253 253 254 255 257 258
263 263 263 263 263 263 263 263 264 264 263 263 262 260 259 258 256 255 256 257 257 256 256 256 255 256 255 255 253 253 253 253 253 253 252 253 253 253 253 254 254 255 257
264 263 263 263 263 263 263 263 264 264 263 262 261 259 259 258 256 255 255 256 257 257 256 256 256 256 256 255 254 253 253 253 253 252 252 253 253 253 253 253 252 253 254
265 263 263 263 263 263 263 264 265 263 263 262 261 260 258 257 257 256 255 256 257 257 257 258 258 257 256 256 255 254 253 253 253 252 252 253 253 253 253 252 251 251 253
265 263 262 263 263 263 263 264 264 264 263 262 261 259 258 256 255 255 256 256 256 257 257 258 259 258 257 257 257 255 255 254 254 253 253 253 253 253 252 252 251 250 251
264 263 262 262 262 262 263 263 263 264 263 262 260 258 257 256 255 256 256 256 256 257 257 258 258 258 257 257 257 257 256 255 254 253 253 253 253 253 252 251 250 249 250